Location: Beccas
(43.4309°N, 0.1528°E)
Time: 14:13:38
(UTC+00:00)

Transit 2A Rocket - Pass Details

Date: 04 June 2022
Orbit: 593 x 908 km, 66.7° (Epoch: 30 June)

Event Time Altitude Azimuth Distance (km) Brightness Sun altitude
Rises 20:52:19 0° 316° (NW) 2,874 10.2 -11.5°
Reaches altitude 10° 20:54:58 10° 301° (WNW) 1,944 8.4 -11.8°
Maximum altitude 20:58:19 22° 250° (WSW) 1,308 6.5 -12.3°
Drops below altitude 10° 21:01:38 10° 199° (SSW) 1,924 6.8 -12.7°
Enters shadow 21:02:42 - 191° (SSW) 2,278 7.1 -12.8°
